Lapse_Rate
5.6 5.5 5.5 5.5 5.7 5.8 5.8 6.0 6.1 5.9 5.9 5.9 5.8 5.9 5.9 6.1 6.5 6.9 7.0 7.1 7.4 7.6 7.9 8.1 8.3 8.5 8.4 8.3 8.5 8.4 7.9 7.5 8.5 7.3 8.0 8.5 8.4 8.5 8.5 8.5 8.5 8.5 8.4 8.4 8.1 8.6 8.9 9.0 8.5 8.4 8.2 8.1 8.0 7.8
5.4 5.5 5.5 5.5 5.6 5.8 5.9 6.0 6.1 6.0 6.0 6.0 5.8 5.8 5.8 5.8 6.1 6.5 6.9 7.0 7.2 7.5 7.7 8.0 8.2 8.5 8.5 8.4 8.5 8.5 8.5 8.1 8.4 8.7 8.7 8.4 8.3 8.1 8.2 8.2 8.4 8.1 8.2 8.2 8.3 8.3 8.6 8.6 8.3 8.1 8.1 7.9 7.7 7.6
5.4 5.4 5.5 5.6 5.8 5.8 5.9 5.9 6.0 6.0 6.0 6.0 5.8 5.8 5.7 5.7 5.8 6.1 6.5 6.9 7.1 7.4 7.5 8.0 8.2 8.3 8.7 8.8 8.5 8.8 8.7 8.4 8.4 8.6 8.4 8.3 8.1 7.9 8.0 8.4 8.3 8.2 8.3 8.3 8.6 8.5 8.6 8.7 8.4 8.2 8.0 7.9 7.7 7.3
5.4 5.4 5.5 5.7 5.9 5.9 5.9 5.9 5.9 5.9 5.9 5.9 5.6 5.6 5.6 5.6 5.6 5.8 6.1 6.4 6.8 7.2 7.5 7.8 8.0 8.1 8.6 8.8 8.8 8.6 8.3 8.2 8.1 7.9 7.9 8.0 7.9 8.1 8.1 8.2 8.2 8.4 8.5 8.4 8.3 8.4 8.5 8.4 8.2 7.9 7.7 7.6 7.4 7.1
5.2 5.4 5.5 5.7 5.9 5.9 5.9 5.8 5.8 5.7 5.8 5.7 5.6 5.4 5.5 5.5 5.6 5.6 5.8 6.1 6.4 6.8 7.3 7.7 8.1 7.9 8.4 8.5 8.6 8.6 8.3 8.0 8.0 7.7 7.6 7.9 8.2 8.5 8.2 8.0 8.1 8.2 8.4 8.3 8.2 8.2 8.2 8.1 7.8 7.6 7.5 7.4 7.1 6.9
5.4 5.4 5.8 5.9 6.0 6.0 5.9 5.8 5.7 5.7 5.7 5.6 5.4 5.3 5.3 5.4 5.6 5.7 5.8 5.9 6.2 6.5 6.9 7.4 7.8 7.7 8.1 8.2 8.4 8.5 8.3 7.8 7.6 7.5 7.5 7.5 7.5 7.9 8.2 7.9 8.0 8.0 8.2 8.2 8.2 8.4 8.3 7.9 7.6 7.6 7.4 7.2 7.0 6.8
5.8 6.1 6.2 6.2 6.2 6.2 5.9 5.8 5.7 5.7 5.5 5.4 5.2 5.1 5.2 5.2 5.4 5.6 5.7 5.9 5.8 6.1 6.5 6.9 7.4 7.6 7.8 7.8 7.9 7.7 7.7 7.7 7.5 7.4 7.0 7.2 7.4 7.6 8.0 7.9 8.1 8.1 7.9 8.2 8.4 8.2 7.7 7.4 7.4 7.5 7.3 7.1 6.8 6.6
6.2 6.3 6.3 6.2 6.1 6.0 5.8 5.7 5.5 5.4 5.3 5.2 5.2 5.1 5.1 5.1 5.2 5.5 5.8 5.8 5.8 5.8 6.0 6.5 7.0 7.5 7.6 7.6 7.5 7.5 7.6 7.4 7.3 7.2 7.2 7.6 7.5 7.5 7.0 7.4 7.8 7.7 8.0 8.2 7.9 7.6 7.3 7.2 7.2 7.3 7.1 7.0 6.8 6.5
6.3 6.2 6.0 6.0 5.8 5.6 5.5 5.4 5.4 5.4 5.2 5.1 5.2 5.2 5.2 5.3 5.4 5.5 5.6 5.7 5.7 5.6 5.8 6.4 6.8 7.0 7.3 7.3 7.4 7.4 7.2 7.1 7.0 7.1 7.4 7.2 7.1 6.9 7.1 7.3 7.5 7.9 7.7 7.4 7.3 7.2 7.1 7.0 7.1 7.0 7.0 6.9 6.8 6.6
6.0 6.1 5.8 5.6 5.4 5.3 5.2 5.0 5.1 5.1 5.1 5.1 5.1 5.1 5.2 5.4 5.4 5.3 5.3 5.4 5.5 5.6 5.8 6.4 6.7 6.8 7.0 7.2 7.3 7.3 7.1 7.0 6.7 6.9 6.9 6.6 6.8 7.2 7.2 7.2 7.3 7.4 7.3 7.2 7.1 7.0 7.0 6.8 6.7 6.7 6.7 6.7 6.4 6.3
5.8 5.7 5.7 5.5 5.4 4.8 4.6 4.3 4.6 4.9 5.0 4.9 5.0 5.1 5.2 5.3 5.2 5.1 5.1 5.2 5.4 5.6 6.2 6.8 6.6 6.6 6.4 6.7 6.9 7.0 7.0 7.0 6.8 6.9 6.7 6.4 6.9 7.6 7.3 7.2 7.2 7.2 7.2 7.0 6.7 6.7 6.5 6.4 6.5 6.5 6.6 6.5 6.4 6.2
5.5 5.2 5.2 4.9 4.5 4.4 4.0 4.1 4.3 4.4 4.7 4.9 5.0 5.0 5.0 5.0 5.1 5.2 5.1 5.2 5.5 5.8 6.0 6.0 5.9 6.5 6.6 6.6 6.7 6.8 6.9 6.9 6.7 6.8 6.6 6.4 7.3 7.2 7.0 7.2 7.0 6.9 6.9 6.8 6.7 6.7 6.6 6.4 6.4 6.4 6.3 6.2 6.1 6.2
5.3 4.9 4.3 4.0 4.0 4.4 4.3 4.5 4.2 4.3 4.8 4.7 4.8 4.9 4.8 5.0 4.9 5.0 5.1 5.1 5.3 5.3 5.4 5.7 5.9 6.2 6.3 6.7 6.5 6.7 6.8 6.8 6.8 6.7 6.6 7.0 7.2 7.2 7.1 7.0 7.0 6.9 7.0 7.0 6.9 6.7 6.5 6.4 6.4 6.3 6.2 6.1 6.0 6.0
4.9 4.6 4.1 3.8 4.1 3.9 4.3 4.1 4.4 4.2 4.7 4.6 4.7 4.9 5.0 5.0 5.0 5.0 5.3 5.3 5.1 5.1 5.3 5.8 5.9 6.2 6.2 6.5 6.8 6.7 6.8 6.9 6.7 6.6 6.9 7.1 7.1 6.9 6.9 7.0 6.9 6.9 7.1 6.9 6.6 6.4 6.4 6.4 6.3 6.2 6.0 5.9 5.8 5.9
5.2 4.9 4.6 4.3 4.3 4.2 4.4 4.2 4.3 4.5 4.6 4.4 4.7 4.8 5.0 5.1 4.9 5.1 5.5 5.5 5.4 5.5 5.8 6.0 6.1 6.3 6.5 6.5 6.8 6.9 7.0 6.8 6.5 7.1 7.1 6.9 6.8 6.8 6.9 6.9 6.9 7.0 6.9 6.7 6.5 6.4 6.3 6.2 6.1 5.9 5.8 5.9 5.9 5.9
5.8 5.6 5.3 5.1 4.7 4.6 4.8 4.7 4.6 4.9 4.5 4.4 4.5 5.0 5.3 5.2 4.9 4.9 5.2 5.4 5.5 5.8 6.0 6.2 6.5 6.6 6.6 6.6 6.6 6.9 6.9 6.7 7.1 7.3 7.1 6.9 6.9 6.8 6.8 7.0 6.9 6.8 6.6 6.4 6.3 6.2 6.1 5.9 5.7 5.7 5.7 5.8 5.8 6.0
5.8 5.8 5.8 5.7 5.4 4.8 4.9 4.7 4.8 4.7 4.6 4.6 4.6 5.2 5.2 5.0 4.9 5.0 5.2 5.5 5.8 5.8 5.9 6.5 6.8 6.9 6.6 6.6 6.6 6.7 6.8 7.1 7.4 7.4 7.1 7.1 7.1 7.0 6.8 6.8 6.6 6.5 6.3 6.1 6.1 6.1 5.8 5.5 5.7 5.7 5.7 5.8 5.9 5.9
5.6 5.6 5.6 5.5 5.3 5.0 4.9 5.0 4.8 4.5 4.6 4.8 4.8 4.9 5.0 4.9 4.9 4.9 4.9 5.3 5.3 5.3 5.5 6.0 6.5 6.6 6.7 6.7 6.9 6.8 6.9 6.9 6.8 6.8 6.9 7.2 7.1 6.9 6.7 6.6 6.5 6.3 6.2 6.2 6.1 5.8 5.5 5.5 5.6 5.8 5.9 5.9 5.8 5.6
5.6 5.5 5.5 5.5 5.4 5.3 5.1 4.8 4.5 4.4 4.6 5.2 5.1 4.8 4.8 4.9 5.0 5.1 5.3 5.4 5.6 5.4 5.2 5.6 6.1 6.4 6.7 6.7 6.9 7.1 6.8 6.7 6.9 6.9 7.1 7.2 7.1 6.9 6.6 6.6 6.3 6.2 6.0 5.7 5.5 5.7 5.6 5.7 5.7 5.8 5.8 5.6 5.4 5.0
5.8 5.7 5.6 5.6 5.6 5.5 5.3 5.2 5.5 5.1 5.5 5.4 5.4 5.2 5.3 5.5 5.3 5.3 5.3 5.5 5.7 5.4 5.4 5.2 5.8 6.4 6.7 6.8 6.5 6.7 6.9 6.9 6.9 7.2 7.4 7.2 7.0 6.7 6.6 6.4 6.1 5.8 5.6 5.4 5.6 5.8 5.9 5.9 5.9 5.7 5.5 5.1 4.9 5.0
5.6 5.7 5.6 5.5 5.4 5.4 5.2 5.5 5.4 5.7 5.7 5.6 5.4 5.3 5.5 5.4 5.4 5.4 5.5 5.4 5.1 5.1 5.3 5.6 5.5 5.8 6.3 6.3 6.4 6.2 6.6 6.7 6.8 7.2 7.1 7.0 6.8 6.6 6.6 6.3 6.0 5.8 5.8 5.8 5.8 5.9 5.8 5.8 5.8 5.5 5.4 5.3 5.0 5.0
5.5 5.6 5.6 5.5 5.2 5.1 5.0 5.2 5.2 5.5 5.6 5.8 5.6 5.3 5.6 5.4 5.2 5.3 5.2 5.1 5.2 5.7 5.7 5.9 6.0 6.1 6.2 6.3 6.2 5.8 6.3 6.4 6.3 6.5 6.4 6.6 6.7 6.8 6.9 6.7 6.4 6.0 5.9 5.8 5.7 5.7 5.7 5.8 5.8 5.5 5.2 5.1 4.9 4.7
5.1 5.2 5.1 5.3 5.1 5.0 4.7 5.0 5.1 5.0 4.8 4.9 4.8 4.8 5.2 5.3 5.1 5.0 4.6 4.9 5.4 5.9 5.9 6.0 6.0 6.1 6.0 6.0 6.1 6.0 6.2 6.3 6.2 6.1 5.4 6.0 6.3 6.6 6.8 6.6 6.4 6.0 6.0 6.0 5.9 5.8 5.6 5.6 5.5 5.4 5.4 5.0 4.9 4.8
5.2 5.1 4.8 5.2 5.2 4.7 4.8 4.9 4.8 4.6 4.2 4.2 4.4 4.6 4.7 4.9 4.9 4.7 4.5 5.5 6.0 5.6 5.5 5.8 5.9 6.0 6.0 6.1 5.9 5.8 6.1 6.2 6.0 6.0 5.4 5.8 6.2 6.6 6.7 6.5 6.2 6.0 6.0 5.9 5.8 5.5 5.4 5.3 5.4 5.4 5.0 5.0 5.0 4.9
5.6 5.9 5.7 5.3 4.9 4.9 4.7 4.9 4.9 4.8 4.8 4.6 4.6 4.6 4.8 4.9 4.9 4.8 5.5 5.9 5.5 5.3 5.6 5.7 5.8 6.0 6.0 6.4 6.3 5.7 5.8 5.8 5.5 5.2 5.3 5.7 5.8 6.0 6.2 6.4 6.2 6.2 6.0 5.9 5.8 5.3 5.3 5.3 5.3 5.3 5.1 5.1 5.1 5.1
6.6 6.7 6.7 6.4 5.9 5.5 5.3 5.4 5.4 5.4 5.3 5.0 5.0 5.0 5.2 5.0 4.9 5.3 5.8 5.3 4.9 5.0 5.6 5.9 6.0 6.1 6.3 6.4 5.9 6.0 5.9 5.8 5.6 5.6 5.2 5.4 5.7 5.7 6.1 5.9 5.8 6.0 5.9 5.8 5.7 5.6 5.5 5.3 5.4 5.4 5.1 5.3 5.2 5.2
6.7 6.8 6.7 6.7 6.2 5.9 5.7 5.8 5.8 5.7 5.7 5.8 5.8 5.8 5.7 5.7 5.8 6.0 5.6 5.5 5.4 5.1 5.1 5.8 6.2 6.5 6.4 6.0 5.6 5.8 5.8 5.8 5.9 5.8 5.6 5.8 5.8 5.7 5.7 5.4 5.9 5.8 5.9 5.9 5.7 5.6 5.5 5.6 5.6 5.5 5.4 5.4 5.3 5.4
6.4 6.6 6.8 6.6 6.4 6.1 6.0 5.9 5.9 6.1 6.3 6.3 6.1 6.2 6.2 6.0 6.2 6.3 5.8 5.8 5.7 5.4 5.2 5.5 6.4 6.3 5.6 5.6 5.7 5.6 5.4 5.6 5.9 5.7 5.5 5.4 5.5 5.7 5.8 5.7 5.5 5.8 5.8 6.0 5.7 5.4 5.5 5.6 5.6 5.6 5.4 5.5 5.6 5.6
6.6 6.8 6.8 6.8 6.5 6.2 6.2 6.3 6.3 6.5 6.7 6.5 6.5 6.5 6.3 6.6 6.6 6.5 6.3 6.2 5.8 5.7 5.4 5.8 6.1 5.8 5.4 5.1 5.7 5.6 5.4 5.7 5.7 5.4 5.3 5.6 5.9 5.9 5.7 5.6 5.7 5.6 5.4 5.4 5.5 5.7 5.8 5.7 5.7 5.7 5.8 5.9 5.8 5.6
6.7 6.8 6.7 6.7 6.7 6.6 6.4 6.5 6.8 6.6 6.4 6.3 6.4 6.4 6.4 6.3 6.4 6.0 5.6 5.7 5.8 5.7 5.8 5.5 5.3 5.5 5.7 5.3 5.5 5.3 5.5 5.6 5.5 5.4 5.4 5.4 5.7 5.7 5.6 5.5 5.5 5.5 5.3 5.4 5.5 5.6 5.5 5.6 5.8 6.0 6.1 5.9 5.6 5.6
6.5 6.6 6.6 6.4 6.4 6.4 6.5 6.6 6.4 6.5 6.3 6.2 6.1 6.0 5.9 5.9 5.9 5.9 5.8 5.4 5.5 5.6 5.4 5.6 5.5 5.3 5.6 5.2 5.4 5.5 5.2 5.0 5.0 5.2 5.6 5.5 5.6 5.5 5.4 5.2 5.2 5.4 5.3 5.3 5.4 5.3 5.6 5.8 5.9 5.8 5.7 5.8 5.8 5.7
6.2 6.3 6.4 6.3 6.2 6.1 6.1 6.2 6.3 6.4 6.3 6.2 6.1 6.1 5.9 5.7 5.7 5.6 5.4 5.4 5.6 5.4 5.6 5.2 5.3 5.5 5.7 5.6 5.6 5.6 5.3 5.2 5.4 5.3 5.3 5.2 5.1 5.2 5.3 5.4 5.4 5.3 5.3 5.2 5.4 5.5 6.0 5.9 5.7 5.7 6.0 6.0 5.9 5.8
6.1 5.9 5.9 5.9 6.2 6.1 6.2 6.2 6.1 6.0 6.1 6.0 5.9 5.9 5.7 5.8 5.6 5.5 5.4 5.3 5.1 5.4 5.5 5.6 5.6 5.5 5.6 5.5 5.5 5.5 5.2 5.1 5.2 4.9 4.9 5.1 5.1 5.1 5.4 5.5 5.5 5.3 5.4 5.9 5.8 5.9 5.9 5.8 5.9 5.9 6.0 6.1 6.0 6.0
Wind_Speed
12 13 13 13 12 13 13 11 8 7 4 4 6 8 10 13 14 4 3 1 2 2 6 5 3 2 2 2 2 2 1 1 2 3 4 3 2 2 1 2 4 5 5 3 3 3 5 2 4 7 6 1 4 4
12 12 12 13 13 12 12 10 8 8 6 4 5 7 8 10 12 7 2 3 1 3 6 3 7 7 6 6 3 2 2 4 4 3 3 1 0 1 2 2 3 1 4 5 7 6 3 3 3 2 5 5 6 7
12 12 12 13 12 11 12 9 8 8 6 4 4 6 8 8 8 6 2 3 2 2 5 3 7 2 4 11 8 4 3 3 3 0 4 2 2 3 3 5 2 1 2 4 3 2 3 2 2 1 3 3 6 11
12 12 12 12 11 11 9 8 7 7 6 5 5 6 8 9 8 6 1 1 2 0 2 6 3 7 2 6 10 10 4 2 3 3 2 3 3 3 4 3 2 4 4 5 2 3 1 3 1 4 7 11 13 10
12 11 11 11 11 10 8 7 7 7 6 5 5 7 8 10 11 10 3 4 2 2 3 5 11 3 6 5 9 11 4 2 1 2 1 3 2 3 2 2 2 4 6 4 5 8 6 5 8 8 12 12 11 17
12 11 11 11 10 9 8 7 6 6 5 5 6 8 9 10 11 2 2 1 6 3 1 4 4 5 5 3 7 7 5 3 3 3 2 2 2 3 3 3 5 4 3 2 2 3 2 6 8 4 10 11 10 11
9 9 8 8 8 7 7 7 6 5 4 6 8 10 10 8 1 2 2 1 6 2 0 5 6 4 4 1 2 3 3 2 2 1 1 2 2 3 3 4 6 5 5 3 5 9 5 4 6 10 11 10 11 10
7 7 7 6 6 6 6 5 3 3 6 9 11 12 12 11 7 5 3 19 7 1 1 2 5 5 5 2 2 2 2 2 4 2 0 1 2 3 1 7 5 0 5 4 6 2 5 11 11 10 11 13 12 10
5 5 6 5 4 4 5 3 1 5 9 12 13 13 2 1 1 2 7 13 4 2 2 2 2 4 5 2 1 3 2 1 1 1 2 3 0 3 7 8 6 8 6 9 6 7 12 14 14 13 12 9 12 8
4 4 4 4 10 8 5 2 4 9 13 12 1 1 2 3 6 9 2 1 0 2 0 3 1 4 2 2 2 3 3 2 0 3 2 2 4 5 7 8 6 7 10 12 12 6 9 9 14 14 12 10 11 12
8 11 13 12 9 6 4 6 9 13 2 2 1 2 2 8 2 1 1 1 1 2 3 4 5 2 2 1 2 1 2 1 1 4 4 1 4 6 8 8 7 9 11 13 8 15 18 20 15 12 9 8 9 10
13 13 11 9 7 6 6 8 11 3 1 1 2 2 2 2 2 1 3 1 3 4 2 3 4 5 3 1 2 1 2 2 5 2 3 2 5 6 2 5 7 9 8 4 4 11 10 11 12 11 10 10 9 9
11 9 8 7 7 7 8 8 7 4 1 1 1 1 2 1 2 4 5 3 2 2 1 3 4 3 2 2 1 2 3 5 2 2 4 5 4 4 5 3 4 6 8 8 8 8 11 11 10 10 10 8 10 9
9 8 6 7 8 9 9 9 7 3 1 2 2 2 4 3 4 4 3 2 4 1 4 2 3 3 2 2 2 4 4 3 2 1 5 3 5 4 3 3 7 8 10 11 10 10 12 12 10 9 10 10 10 8
6 5 3 11 11 10 10 10 5 0 0 2 2 4 4 2 2 3 2 2 2 2 2 3 3 1 1 2 3 2 3 3 4 5 4 5 4 4 4 4 7 9 9 10 11 11 12 12 11 9 8 8 7 7
5 3 4 11 12 12 9 5 0 0 1 2 2 1 1 1 2 2 2 3 2 3 1 2 2 1 5 3 3 5 5 4 4 4 4 2 2 4 4 6 6 7 9 11 10 11 12 12 12 11 7 7 7 7
5 2 8 12 14 8 7 1 1 1 1 2 1 0 2 2 4 3 2 2 3 3 3 2 3 1 1 1 2 4 5 4 4 4 3 3 4 6 7 8 8 10 11 11 12 10 8 9 11 9 8 5 6 6
2 3 8 12 11 4 3 2 1 1 2 1 1 1 1 2 2 4 3 2 3 3 2 2 3 3 3 2 2 3 3 4 3 4 3 3 6 6 7 10 8 10 11 10 11 8 9 11 10 7 7 6 5 5
1 3 6 9 5 1 2 3 2 1 2 1 2 2 2 3 3 4 4 4 3 3 3 1 4 3 3 2 2 1 3 3 3 3 3 2 7 9 8 7 8 8 12 12 11 8 8 9 7 6 5 5 4 4
6 5 6 4 4 2 1 1 1 2 2 2 1 2 3 3 2 2 3 2 1 1 3 3 3 2 2 2 0 3 4 6 3 1 2 1 3 8 9 10 8 7 7 6 5 6 5 4 3 4 5 6 4 4
4 2 4 3 3 2 1 1 2 2 3 2 2 2 3 1 3 3 3 3 2 3 3 4 3 4 3 3 3 2 5 4 3 3 2 3 4 5 5 4 6 5 6 6 7 5 7 7 6 6 5 5 4 4
1 2 1 2 1 1 1 2 2 3 2 3 3 2 3 3 3 3 2 2 3 4 4 4 3 2 3 1 2 1 5 5 0 3 6 8 6 5 6 7 7 6 6 7 7 8 7 5 5 5 5 4 4 3
2 1 1 1 1 2 3 2 2 3 3 2 2 2 3 3 3 2 2 3 4 4 5 5 5 5 5 3 1 1 3 4 1 3 6 3 3 5 6 6 6 8 6 4 5 6 6 8 6 6 4 4 4 4
2 1 1 2 3 2 2 3 3 3 3 3 3 3 3 3 0 1 4 4 4 3 4 7 5 4 3 3 2 3 3 2 5 6 3 3 4 3 6 7 6 3 5 5 6 5 4 5 6 5 5 4 4 4
2 2 2 4 2 3 3 3 4 3 3 4 2 3 3 1 2 3 4 4 2 4 7 6 4 6 8 4 2 3 5 3 6 2 1 2 2 1 3 3 3 3 3 5 5 5 4 4 5 6 6 6 6 6
4 4 4 3 3 4 4 3 4 5 4 4 4 3 1 2 2 5 3 2 2 2 3 5 7 5 5 5 4 4 4 3 4 4 3 4 6 7 7 7 5 4 5 4 6 6 6 4 5 7 6 6 8 6
3 4 5 3 2 2 3 4 2 2 3 5 3 3 3 4 5 4 2 1 2 4 4 5 7 8 7 6 4 3 5 5 5 4 5 6 7 4 3 7 8 3 8 9 8 9 9 9 7 6 5 3 4 6
3 3 5 3 4 4 3 3 3 4 3 3 3 4 3 4 3 2 2 4 6 6 6 4 6 6 6 6 4 5 4 2 2 4 4 1 3 3 4 3 4 11 7 8 9 7 8 7 6 6 5 4 5 5
4 3 4 4 5 5 6 5 4 3 3 1 3 2 3 2 2 2 4 6 7 5 4 6 4 4 3 4 3 3 5 7 7 6 8 3 2 4 4 4 4 4 4 6 9 10 10 7 7 6 7 6 4 3
5 5 4 4 4 4 4 5 3 5 3 4 3 3 3 6 9 6 4 3 3 4 2 3 4 5 4 6 4 3 2 3 5 6 8 6 5 3 6 5 4 4 5 6 7 5 6 5 4 3 3 3 2 2
2 4 3 3 3 4 5 4 4 3 3 3 3 4 4 3 4 4 5 4 3 2 2 2 3 4 3 4 6 5 3 2 3 4 3 4 4 4 5 5 5 5 6 7 7 6 5 4 3 4 5 5 4 2
3 5 3 3 4 4 1 3 3 3 2 4 4 4 3 3 3 3 2 4 4 2 3 4 3 1 4 3 4 3 7 2 3 3 5 4 4 4 4 5 6 7 7 7 6 7 7 7 5 4 4 5 6 6
2 2 4 3 2 3 2 2 3 3 4 3 3 4 4 3 4 2 1 3 3 4 4 4 7 2 2 4 3 4 2 2 2 5 6 7 8 8 5 6 6 7 9 8 7 6 6 6 4 4 5 6 5 6
Wind_Direction
257 260 263 267 271 273 277 276 277 268 272 311 332 339 345 350 357 19 276 228 93 266 277 229 254 200 18 26 99 277 165 235 69 145 227 222 160 245 80 178 197 150 132 138 103 110 254 166 119 151 206 250 150 115
258 259 263 264 267 267 272 266 264 257 259 281 315 328 339 347 353 16 328 352 13 189 258 283 259 238 197 191 124 327 220 221 198 126 148 156 236 36 113 251 23 287 176 171 173 204 227 272 257 324 157 162 168 123
257 260 263 263 261 261 266 253 260 256 249 268 296 315 327 337 348 5 289 302 11 327 298 347 255 293 205 216 193 174 271 227 280 281 150 153 124 132 164 242 155 268 155 104 96 274 300 349 323 147 147 137 115 126
256 257 258 259 256 256 243 244 258 248 243 260 285 306 317 322 326 327 276 208 99 172 286 282 308 294 198 152 183 206 156 63 102 83 104 144 141 181 195 209 185 212 118 131 315 297 315 288 207 140 103 109 110 99
254 253 256 256 256 242 229 238 253 242 237 258 285 302 310 317 319 300 204 221 203 125 260 285 310 264 271 202 192 194 184 106 31 334 90 243 142 144 93 88 274 183 168 151 219 203 166 218 155 144 138 136 133 125
256 253 250 247 236 225 229 244 247 235 240 266 287 297 305 319 334 343 340 188 200 179 349 308 301 298 313 150 148 161 162 156 185 178 187 261 283 98 113 187 265 223 197 154 246 137 82 115 108 91 120 120 110 108
253 247 237 221 214 220 237 250 245 224 254 280 289 293 297 304 98 182 205 173 129 141 70 308 314 284 301 103 82 85 68 187 158 121 234 177 159 113 102 185 245 237 225 199 140 110 62 181 158 121 116 106 98 89
246 231 214 207 216 224 238 233 202 255 284 288 290 291 290 286 262 289 247 220 197 57 64 278 276 332 358 358 90 7 100 36 21 167 288 103 27 66 238 250 270 349 83 107 187 330 131 116 112 110 119 123 117 121
234 221 206 209 209 193 141 129 313 303 299 297 297 299 358 103 181 274 51 125 138 143 256 187 252 269 354 357 321 42 54 71 311 171 246 99 23 221 223 211 200 198 191 157 100 95 126 135 132 132 130 126 126 138
215 216 205 173 124 115 104 30 324 314 308 308 73 118 291 222 320 129 288 88 83 267 115 228 248 272 27 4 8 75 14 149 179 258 94 117 247 253 232 219 227 171 145 132 112 101 113 130 151 156 156 155 159 159
96 103 103 101 97 85 53 6 344 329 69 43 355 229 289 318 103 51 239 163 190 264 204 239 193 234 292 30 234 179 178 130 140 260 141 303 284 248 234 217 182 169 174 182 174 170 172 158 153 152 156 141 141 145
83 85 86 83 73 46 19 8 357 30 72 216 266 298 301 62 51 183 227 298 199 233 221 203 234 196 271 130 115 273 148 73 224 126 105 256 248 250 259 204 194 180 174 163 145 144 137 150 153 143 139 138 144 143
80 77 69 50 35 19 5 1 351 316 322 140 242 277 92 242 84 201 209 239 267 229 255 327 298 206 352 48 124 126 160 214 100 114 218 227 273 286 249 186 161 146 128 115 105 103 114 116 118 131 123 122 133 135
57 47 58 45 24 5 352 340 333 348 235 205 169 262 178 208 236 192 202 210 260 260 307 260 251 192 182 143 180 169 221 110 89 162 235 252 243 257 200 167 136 152 137 127 125 125 123 124 114 115 129 139 136 143
35 36 55 16 359 348 334 322 315 174 243 236 153 222 213 278 271 242 251 314 278 277 302 319 284 145 215 221 208 137 134 236 186 215 228 241 246 219 187 152 140 137 132 129 129 129 125 123 123 114 125 132 128 126
1 78 20 352 347 338 336 324 324 157 272 240 208 247 264 16 303 323 324 297 287 296 245 154 262 211 230 168 153 211 139 194 230 218 236 260 247 180 144 126 121 117 124 126 126 128 125 126 131 133 126 131 135 145
51 52 348 350 346 335 342 14 334 142 198 252 234 107 188 247 238 278 317 285 311 341 5 303 262 219 55 79 245 172 192 213 222 243 248 219 176 158 133 120 122 125 125 125 120 122 115 120 125 126 136 161 155 165
55 333 356 355 358 339 351 7 46 58 263 268 260 268 237 245 277 280 269 309 348 354 327 16 294 271 205 204 264 318 328 293 265 294 298 145 132 138 140 135 130 130 127 125 128 122 125 134 144 156 152 156 149 167
321 325 334 345 8 12 6 358 24 273 264 268 232 228 227 250 242 256 274 276 260 255 283 203 254 238 239 211 197 274 297 290 294 316 324 179 141 137 130 120 126 127 137 143 144 148 155 159 161 157 151 157 177 188
339 351 349 4 3 21 354 323 32 286 273 262 276 260 227 229 235 228 254 257 254 270 236 204 238 265 246 314 308 262 274 292 258 234 60 107 137 134 149 151 152 134 121 112 99 112 120 110 130 157 167 180 175 197
14 358 39 45 16 55 25 319 267 246 297 283 271 257 262 236 237 214 232 184 195 212 233 228 217 244 230 237 253 254 282 283 262 213 224 181 164 136 129 114 125 134 144 153 159 153 154 179 181 184 176 183 205 215
277 128 48 23 48 354 285 226 269 310 271 256 282 225 270 278 245 217 169 169 230 229 205 223 241 233 241 230 289 338 286 289 156 106 50 126 147 145 148 153 142 157 165 175 172 179 187 179 172 178 172 191 188 204
58 131 93 8 309 199 265 151 249 218 250 250 246 235 235 237 221 115 254 218 242 231 219 221 231 223 227 260 215 136 297 317 204 66 45 302 257 130 137 158 167 170 169 183 176 171 171 155 172 172 159 174 186 175
177 304 206 250 199 262 249 227 220 249 240 241 215 267 244 240 170 219 242 241 234 219 202 225 213 246 281 247 209 191 196 223 92 49 66 245 260 182 163 168 184 172 180 146 155 165 152 169 166 170 172 180 188 188
251 217 188 243 216 213 233 216 212 205 250 222 253 257 256 206 246 230 229 260 244 232 230 223 212 212 225 231 209 195 188 214 113 132 31 184 163 134 104 111 113 157 138 133 149 155 167 161 171 176 186 185 196 200
246 213 213 218 203 222 206 228 210 219 206 208 238 249 199 164 242 251 245 254 259 245 248 223 221 212 227 198 188 200 190 166 175 154 128 211 212 212 176 176 174 209 185 164 144 156 167 177 179 175 189 192 184 176
248 239 212 211 251 272 250 257 200 232 236 213 238 211 188 221 230 246 293 305 301 293 256 239 209 202 198 202 206 197 162 184 181 160 138 201 202 240 233 185 199 193 159 165 164 161 171 175 176 178 171 159 167 189
247 269 230 198 206 205 242 253 237 228 216 218 253 215 223 222 242 263 261 279 283 295 293 291 202 192 183 196 178 164 163 150 36 63 84 101 219 154 182 159 142 165 154 158 156 156 170 168 164 170 160 172 186 198
240 218 200 240 224 225 215 218 229 237 169 31 302 257 267 286 246 231 269 278 298 301 325 343 7 147 134 133 110 141 156 158 158 178 205 200 169 220 191 170 141 141 119 141 159 154 165 171 174 172 181 196 201 217
241 183 235 220 199 226 230 195 213 225 214 200 228 235 253 264 268 261 255 263 282 279 292 322 305 66 74 111 73 351 329 212 189 194 187 188 202 164 155 151 142 141 142 148 148 129 126 129 97 127 130 144 143 171
226 174 226 226 261 241 222 210 230 225 208 229 240 261 266 287 298 260 220 217 216 233 331 351 44 41 73 111 149 201 230 233 196 178 195 143 152 151 159 158 148 146 147 148 145 145 139 135 155 161 169 175 200 200
191 207 181 228 258 267 214 201 212 194 243 211 234 218 232 233 244 266 237 145 168 117 354 330 346 273 158 230 252 230 197 166 181 188 172 180 142 128 133 132 135 140 146 134 140 150 156 146 148 164 183 201 205 192
269 211 216 260 294 298 260 233 238 198 199 210 232 199 201 224 252 228 169 215 166 171 210 213 236 187 287 5 1 291 340 83 193 184 159 106 115 128 132 141 144 148 144 140 149 153 155 152 169 192 206 206 203 203